Home > Weather > Uyo > Past weeks

Flag for Nigeria Weather for the Past 2 Weeks in Uyo, Nigeria

Now
73 °F

Fog.


Feels Like: 73 °F
Forecast: 73 / 101 °F
Wind: 2 mph from Southwest

Location: Malabo/Fernando Poo

Current Time: Feb 11, 2016 at 8:14:22 AM

Latest Report: Feb 11, 2016 at 7:00 AM


Visibility: 2 mi

Pressure: 29.89 "Hg

Humidity: 83%

Dew point: 68 °F

Location of UyoLocation

Historic Weather in Uyo — Graph

°F

Uyo Temperature Yesterday

Maximum temperature yesterday: 88 °F (at 12:00 PM)
Minimum temperature yesterday: 75 °F (at 6:00 AM)
Average temperature yesterday: 81 °F

High & Low Weather Summary for the Past Weeks

 TemperatureHumidityPressure
High91 °F (Jan 27, 3:00 PM)94% (Jan 30, 5:00 AM)30.01 "Hg (Jan 30, 5:00 AM)
Low70 °F (Jan 30, 7:00 AM)43% (Jan 31, 11:00 AM)29.77 "Hg (Feb 2, 3:00 PM)
Average81 °F74%29.89 "Hg
* Reported Jan 27 7:00 AM — Feb 11 7:00 AM, Uyo, Weather by CustomWeather, © 2016

Note: Actual official high and low records may vary slightly from our data, if they occured in-between our weather recording intervals... More about our weather records

Advertising

Uyo Weather History for the Previous 24 Hours

 ConditionsComfort  
Time TempWeatherWind HumidityBarometerVisibility
7:00 AM
Thu, Feb 11
73 °FFog.2 mph83%29.89 "Hg1 mi
6:00 AM73 °FFog.1 mph83%29.86 "Hg2 mi
5:00 AM73 °FFog.2 mph83%29.86 "Hg2 mi
4:00 AM73 °FFog.3 mph83%29.86 "Hg2 mi
3:00 AM73 °FFog.3 mph83%29.86 "Hg2 mi
2:00 AM73 °FFog.6 mph78%29.86 "Hg2 mi
1:00 AM73 °FFog.5 mph83%29.86 "Hg2 mi
12:00 AM75 °FFog.3 mph78%29.89 "Hg2 mi
11:00 PM
Wed, Feb 10
75 °FFog.3 mph78%29.89 "Hg2 mi
10:00 PM75 °FFog.3 mph78%29.89 "Hg2 mi
9:00 PM77 °FHaze.5 mph69%29.86 "Hg2 mi
8:00 PM79 °FHaze.7 mph65%29.83 "Hg2 mi
7:00 PM81 °FHaze.8 mph58%29.83 "Hg2 mi
6:00 PM82 °FHaze.10 mph55%29.80 "Hg2 mi
5:00 PM86 °FHaze.9 mph52%29.77 "Hg2 mi
4:00 PM86 °FHaze.9 mph55%29.80 "Hg2 mi
3:00 PM88 °FHaze.12 mph59%29.80 "Hg2 mi
2:00 PM88 °FHaze.9 mph66%29.83 "Hg2 mi
1:00 PM88 °FHaze.10 mph66%29.86 "Hg2 mi
12:00 PM88 °FHaze.9 mph66%29.89 "Hg2 mi
11:00 AM86 °FHaze.8 mph70%29.92 "Hg1 mi
10:00 AM81 °FHaze.5 mph66%29.95 "Hg1 mi
9:00 AM81 °FHaze.5 mph66%29.95 "Hg1 mi
8:00 AM77 °FHaze.5 mph61%29.92 "Hg1 mi
Weather by CustomWeather, © 2016

See weather overviewHow to use our weather pages